This demonstration page uses our WeatherBlox Daily Observations layout. Learn more.

41.55636, -103.73856

Hourly Observations for November 28, 2015

Temp ( °F °C ) Dew Point ( °F °C ) Humidity (%) Winds ( mph kmh ) Pressure ( in mb ) Visibility ( mi km ) Precip ( " mm )
12:53 am 00:53 Cloudy 22 -5.6 12 -11.1 66 66 ESE 6 9 30.45 1031 10 16.0934 0 0
1:53 am 01:53 Cloudy 22 -5.6 13 -10.6 68 68 ESE 8 13 30.44 1031 10 16.0934 0 0
2:43 am 02:43 Cloudy 22 -5.6 13 -10.6 68 68 SE 8 13 30.5 1033 10 16.0934 0 0
2:53 am 02:53 Cloudy 22 -5.6 13 -10.6 68 68 ESE 7 11 30.42 1030 10 16.0934 0 0
3:15 am 03:15 Cloudy 22 -5.6 14 -10 71 71 ESE 9 15 30.48 1032 10 16.0934 0 0
3:53 am 03:53 Cloudy 22 -5.6 14 -10 71 71 ESE 9 15 30.4 1030 10 16.0934 0 0
4:53 am 04:53 Cloudy 22 -5.6 14 -10 71 71 ESE 8 13 30.4 1030 10 16.0934 0 0
5:03 am 05:03 Cloudy 21 -6 14 -10 74 74 ESE 9 15 30.48 1032 10 16.0934 0 0
5:53 am 05:53 Cloudy 22 -5.6 13 -10.6 68 68 ESE 9 15 30.4 1029 10 16.0934 0 0
6:53 am 06:53 Cloudy 22 -5.6 13 -10.6 68 68 ESE 8 13 30.4 1030 10 16.0934 0 0
7:05 am 07:05 Cloudy 22 -5.6 12 -11.1 66 66 ESE 8 13 30.48 1032 10 16.0934 0 0
7:53 am 07:53 Cloudy with Light Snow 22 -5.6 14 -10 71 71 ESE 8 13 30.41 1030 6 9.65604 0 0.0254
8:12 am 08:12 Cloudy with Light Snow 21 -6 16 -9 80 80 ESE 7 11 30.48 1032 2.5 4.02335 0 0
8:19 am 08:19 Cloudy with Light Snow 22 -5.6 15 -9.4 75 75 ESE 9 15 30.48 1032 3 4.82802 0.01 0.254
8:53 am 08:53 Cloudy with Light Snow 22 -5.6 15 -9.4 75 75 ESE 10 17 30.41 1030 4 6.43736 0.01 0.254
9:53 am 09:53 Cloudy 22 -5.6 16 -8.9 78 78 SE 13 20 30.41 1030 8 12.87472 0 0.0254
10:53 am 10:53 Cloudy with Light Snow 22 -5.6 17 -8.3 82 82 SE 10 17 30.4 1030 1.5 2.41401 0 0.0254
11:01 am 11:01 Cloudy with Light Snow 22 -5.6 18 -7.8 85 85 SE 12 19 30.48 1032 1 1.60934 0.01 0.254
11:07 am 11:07 Cloudy with Snow 22 -5.6 18 -7.8 85 85 SE 9 15 30.48 1032 0.5 0.80467 0.01 0.254
11:12 am 11:12 Mostly Cloudy with Scattered Snow Showers 23 -5 18 -8 80 80 SE 9 15 30.48 1032 0.75 1.207005 0 0
11:17 am 11:17 Cloudy with Light Snow 23 -5 18 -7.8 81 81 SE 9 15 30.45 1031 1.75 2.816345 0.02 0.508
11:21 am 11:21 Cloudy with Light Snow 23 -5 18 -7.8 81 81 SE 10 17 30.45 1031 3 4.82802 0.02 0.508
11:38 am 11:38 Cloudy with Light Snow 23 -5 18 -8 80 80 SE 8 13 30.45 1031 7 11.26538 0 0
11:48 am 11:48 Cloudy with Light Snow 23 -5 18 -8 80 80 SE 9 15 30.45 1031 5 8.0467 0 0
11:53 am 11:53 Cloudy with Light Snow 23 -5 17 -8.3 78 78 ESE 9 15 30.37 1029 2.5 4.02335 0.02 0.508
12:11 pm 12:11 Cloudy with Light Snow 24 -4.4 18 -7.8 77 77 SE 8 13 30.42 1030 4 6.43736 0 0.0254
12:51 pm 12:51 Cloudy 25 -4 19 -7 80 80 SE 9 15 30.42 1030 10 16.0934 0 0.0254
12:53 pm 12:53 Cloudy 25 -3.9 19 -7.2 78 78 SE 7 11 30.35 1028 10 16.0934 0 0.0254
1:00 pm 13:00 Cloudy 25 -4 18 -8 74 74 SE 7 11 30.42 1030 10 16.0934 0 0
1:15 pm 13:15 Cloudy 25 -3.9 18 -7.8 75 75 SE 7 11 30.39 1029 10 16.0934 0 0
1:53 pm 13:53 Cloudy 25 -3.9 19 -7.2 78 78 ESE 7 11 30.33 1027 10 16.0934 0 0
2:53 pm 14:53 Cloudy 25 -3.9 19 -7.2 78 78 SE 8 13 30.33 1027 10 16.0934 0 0
3:53 pm 15:53 Cloudy 25 -3.9 19 -7.2 78 78 E 6 9 30.33 1027 10 16.0934 0 0
4:53 pm 16:53 Cloudy 25 -3.9 18 -7.8 75 75 SE 3 6 30.33 1027 10 16.0934 0 0
5:53 pm 17:53 Cloudy 26 -3.3 18 -7.8 71 71 Calm 30.34 1028 10 16.0934 0 0
6:53 pm 18:53 Cloudy 26 -3.3 17 -8.3 69 69 Calm 30.34 1027 10 16.0934 0 0
7:53 pm 19:53 Cloudy 26 -3.3 18 -7.8 71 71 WSW 5 7 30.34 1028 10 16.0934 0 0
8:53 pm 20:53 Cloudy 25 -3.9 18 -7.8 75 75 SW 6 9 30.34 1028 10 16.0934 0 0
9:53 pm 21:53 Cloudy 25 -3.9 17 -8.3 72 72 SSW 3 6 30.33 1027 10 16.0934 0 0
10:53 pm 22:53 Cloudy 24 -4.4 17 -8.3 75 75 SSW 5 7 30.34 1027 10 16.0934 0 0
11:53 pm 23:53 Cloudy 22 -5.6 17 -8.3 82 82 Calm 30.34 1027 10 16.0934 0 0

Powered by AerisWeather